Date String (YYYY-MM-DD hh:mm:ss) UTC,Instrument flags,absolute air pressure of the measurement (hPa),sample flow rate (lpm),inlet stack bypass flow (lpm),air temperature of the measurement (°C),ambient temperature measured by the external sensor (°C),aerosol sample conditioner tube jacket temperature (°C),OPC LED temperature (°C),internal box temperature (°C),relative humidity of the measurement (%),span deviation,mass concentration of particles derived from Lorenz-Mie calculation of OPC scattering (μg/m³),mass concentration of particles derived from Lorenz-Mie calculation of OPC scattering (μg/m³),mass concentration of particles derived from Lorenz-Mie calculation of OPC scattering (μg/m³)
DateTimeUTC,F1_M11,P_M11,Q1_M11,Q2_M11,T1_M11,T2_M11,T3_M11,T4_M11,T5_M11,U1_M11,ZSPAN_M11,X0_M11,X2_M11,X1_M11
2023-08-09 15:00:00,SystemResetWarning,0831.5,5.01,000.00,029.6,025.4,000.0,038.0,030.8,27.0,0000.0,0012.06,0004.90,0004.30
2023-08-09 15:01:00,SystemResetWarning,0831.5,5.01,000.00,029.5,025.7,000.0,038.0,030.7,27.3,0000.0,0012.84,0004.95,0004.30
2023-08-09 15:02:00,SystemResetWarning,0831.5,5.00,000.00,029.5,026.1,000.0,038.0,030.8,27.3,0000.0,0013.27,0004.92,0004.30
2023-08-09 15:03:00,SystemResetWarning,0831.5,5.00,000.00,029.4,026.5,000.0,038.1,030.9,27.3,0000.0,0013.35,0004.94,0004.30
2023-08-09 15:04:00,SystemResetWarning,0831.5,5.00,000.00,029.4,026.9,000.0,038.1,030.9,27.3,0000.0,0012.98,0004.96,0004.29
2023-08-09 15:05:00,SystemResetWarning,0831.5,4.99,000.00,029.4,027.2,000.0,038.1,031.0,27.6,0000.0,0012.14,0004.93,0004.28
2023-08-09 15:06:00,SystemResetWarning,0831.5,5.00,000.00,029.5,027.5,000.0,038.1,031.1,27.3,0000.0,0012.25,0004.94,0004.27
2023-08-09 15:07:00,SystemResetWarning,0831.5,5.00,000.00,029.5,027.7,000.0,038.1,031.1,27.2,0000.0,0011.87,0004.96,0004.27
2023-08-09 15:08:00,SystemResetWarning,0831.5,5.00,000.00,029.5,027.9,000.0,038.1,031.2,26.7,0000.0,0011.84,0004.98,0004.26
2023-08-09 15:09:00,SystemResetWarning,0831.5,5.00,000.00,029.5,028.0,000.0,038.1,031.2,26.6,0000.0,0011.79,0004.99,0004.27
2023-08-09 15:10:00,SystemResetWarning,0831.5,5.00,000.00,029.6,028.2,000.0,038.1,031.2,26.6,0000.0,0011.84,0005.04,0004.28
2023-08-09 15:11:00,SystemResetWarning,0831.5,5.00,000.00,029.6,028.3,000.0,038.1,031.3,27.2,0000.0,0010.99,0005.06,0004.26
2023-08-09 15:12:00,SystemResetWarning,0831.5,5.01,000.00,029.6,028.4,000.0,038.1,031.3,26.9,0000.0,0010.28,0005.00,0004.24
2023-08-09 15:13:00,SystemResetWarning,0831.5,5.00,000.00,029.6,028.5,000.0,038.2,031.4,26.9,0000.0,0009.32,0004.95,0004.22
2023-08-09 15:14:00,SystemResetWarning,0831.5,5.00,000.00,029.7,028.5,000.0,038.2,031.4,26.9,0000.0,0010.03,0004.86,0004.21
2023-08-09 15:15:00,SystemResetWarning,0831.5,4.99,000.00,029.7,028.3,000.0,038.2,031.4,26.8,0000.0,0010.81,0004.85,0004.19
2023-08-09 15:16:00,SystemResetWarning,0831.5,4.99,000.00,029.7,026.7,000.0,038.0,031.1,27.1,0000.0,0011.02,0004.82,0004.17
2023-08-09 15:17:00,SystemResetWarning,0831.5,5.01,000.00,029.6,025.4,000.0,037.9,030.9,27.0,0000.0,0010.72,0004.84,0004.16
2023-08-09 15:18:00,SystemResetWarning,0831.5,5.01,000.00,029.5,025.3,000.0,037.9,030.8,27.9,0000.0,0010.43,0004.82,0004.15
2023-08-09 15:19:00,SystemResetWarning,0831.5,5.00,000.00,029.4,025.6,000.0,037.9,030.7,28.1,0000.0,0010.42,0004.81,0004.14
2023-08-09 15:20:00,SystemResetWarning,0831.5,5.00,000.00,029.4,026.0,000.0,037.9,030.7,27.8,0000.0,0010.53,0004.81,0004.12
2023-08-09 15:21:00,SystemResetWarning,0831.5,5.00,000.00,029.4,026.4,000.0,038.0,030.8,27.3,0000.0,0010.77,0004.78,0004.10
2023-08-09 15:22:00,SystemResetWarning,0831.5,5.00,000.00,029.4,026.8,000.0,038.0,030.9,26.1,0000.0,0010.72,0004.69,0004.08
2023-08-09 15:23:00,SystemResetWarning,0831.5,5.00,000.00,029.4,027.1,000.0,038.0,031.0,25.5,0000.0,0010.87,0004.69,0004.07
2023-08-09 15:24:00,SystemResetWarning,0831.4,5.00,000.00,029.4,027.4,000.0,038.0,031.0,26.0,0000.0,0011.34,0004.70,0004.06
2023-08-09 15:25:00,SystemResetWarning,0831.4,5.00,000.00,029.4,027.6,000.0,038.0,031.1,27.6,0000.0,0010.53,0004.72,0004.05
2023-08-09 15:26:00,SystemResetWarning,0831.4,5.00,000.00,029.4,027.8,000.0,038.0,031.1,27.4,0000.0,0009.94,0004.71,0004.03
2023-08-09 15:27:00,SystemResetWarning,0831.4,5.00,000.00,029.5,028.0,000.0,038.0,031.2,26.6,0000.0,0009.91,0004.73,0004.02
2023-08-09 15:28:00,SystemResetWarning,0831.5,5.00,000.00,029.5,028.1,000.0,038.0,031.2,26.2,0000.0,0009.93,0004.71,0004.01
2023-08-09 15:29:00,SystemResetWarning,0831.4,4.99,000.00,029.5,028.3,000.0,038.1,031.2,25.9,0000.0,0010.06,0004.69,0004.00
2023-08-09 15:30:00,SystemResetWarning,0831.4,4.99,000.00,029.6,028.4,000.0,038.1,031.3,26.1,0000.0,0011.34,0004.65,0003.98
2023-08-09 15:31:00,SystemResetWarning,0831.4,5.00,000.00,029.6,028.4,000.0,038.1,031.3,26.1,0000.0,0011.99,0004.57,0003.95
2023-08-09 15:32:00,SystemResetWarning,0831.4,5.00,000.00,029.6,027.6,000.0,038.0,031.2,25.8,0000.0,0011.60,0004.54,0003.93
2023-08-09 15:33:00,SystemResetWarning,0831.4,5.00,000.00,029.6,025.9,000.0,037.9,031.0,27.2,0000.0,0011.47,0004.58,0003.92
2023-08-09 15:34:00,SystemResetWarning,0831.4,5.01,000.00,029.5,025.3,000.0,037.8,030.8,27.5,0000.0,0011.24,0004.57,0003.92
2023-08-09 15:35:00,SystemResetWarning,0831.4,5.00,000.00,029.4,025.5,000.0,037.8,030.6,27.4,0000.0,0010.78,0004.55,0003.92
2023-08-09 15:36:00,SystemResetWarning,0831.4,5.00,000.00,029.3,025.9,000.0,037.8,030.6,27.5,0000.0,0011.44,0004.49,0003.91
2023-08-09 15:37:00,SystemResetWarning,0831.3,5.00,000.00,029.3,026.3,000.0,037.9,030.7,28.1,0000.0,0010.99,0004.43,0003.90
2023-08-09 15:38:00,SystemResetWarning,0831.3,5.00,000.00,029.3,026.7,000.0,037.9,030.8,28.4,0000.0,0010.66,0004.39,0003.90
2023-08-09 15:39:00,SystemResetWarning,0831.3,5.00,000.00,029.3,027.0,000.0,037.9,030.9,29.2,0000.0,0010.63,0004.35,0003.89
2023-08-09 15:40:00,SystemResetWarning,0831.3,4.99,000.00,029.3,027.3,000.0,037.9,031.0,28.7,0000.0,0010.64,0004.34,0003.88
2023-08-09 15:41:00,SystemResetWarning,0831.3,4.99,000.00,029.4,027.5,000.0,037.9,031.0,28.4,0000.0,0009.42,0004.36,0003.89
2023-08-09 15:42:00,SystemResetWarning,0831.3,5.00,000.00,029.4,027.7,000.0,037.9,031.1,28.6,0000.0,0009.10,0004.41,0003.92
2023-08-09 15:43:00,SystemResetWarning,0831.4,5.02,000.00,029.4,027.9,000.0,037.9,031.1,28.3,0000.0,0009.30,0004.40,0003.93
2023-08-09 15:44:00,SystemResetWarning,0831.3,5.00,000.00,029.5,028.1,000.0,038.0,031.2,28.6,0000.0,0009.53,0004.43,0003.93
2023-08-09 15:45:00,SystemResetWarning,0831.3,5.00,000.00,029.5,028.2,000.0,038.0,031.2,27.8,0000.0,0009.48,0004.42,0003.95
2023-08-09 15:46:00,SystemResetWarning,0831.3,5.00,000.00,029.5,028.3,000.0,038.0,031.3,28.0,0000.0,0009.46,0004.43,0003.96
2023-08-09 15:47:00,SystemResetWarning,0831.3,4.99,000.00,029.6,028.2,000.0,038.0,031.3,28.6,0000.0,0008.77,0004.47,0003.98
2023-08-09 15:48:00,SystemResetWarning,0831.3,4.99,000.00,029.5,026.6,000.0,037.9,031.0,28.6,0000.0,0008.96,0004.52,0004.00
2023-08-09 15:49:00,SystemResetWarning,0831.3,5.00,000.00,029.5,025.3,000.0,037.8,030.8,28.5,0000.0,0009.18,0004.58,0004.03
2023-08-09 15:50:00,SystemResetWarning,0831.3,5.01,000.00,029.4,025.3,000.0,037.7,030.6,28.6,0000.0,0009.19,0004.64,0004.06
2023-08-09 15:51:00,SystemResetWarning,0831.3,5.01,000.00,029.3,025.6,000.0,037.7,030.6,28.2,0000.0,0008.96,0004.66,0004.08
2023-08-09 15:52:00,SystemResetWarning,0831.3,5.00,000.00,029.2,026.0,000.0,037.8,030.6,26.9,0000.0,0009.67,0004.71,0004.09
2023-08-09 15:53:00,SystemResetWarning,0831.3,5.00,000.00,029.2,026.4,000.0,037.8,030.7,27.3,0000.0,0009.39,0004.72,0004.10
2023-08-09 15:54:00,SystemResetWarning,0831.3,5.00,000.00,029.3,026.8,000.0,037.8,030.8,27.6,0000.0,0009.30,0004.77,0004.11
2023-08-09 15:55:00,SystemResetWarning,0831.3,4.99,000.00,029.3,027.1,000.0,037.8,030.9,27.8,0000.0,0009.02,0004.74,0004.11
2023-08-09 15:56:00,SystemResetWarning,0831.3,5.00,000.00,029.3,027.4,000.0,037.8,031.0,28.0,0000.0,0009.20,0004.75,0004.12
2023-08-09 15:57:00,SystemResetWarning,0831.3,5.00,000.00,029.3,027.6,000.0,037.8,031.0,27.2,0000.0,0009.87,0004.78,0004.12
2023-08-09 15:58:00,SystemResetWarning,0831.3,5.00,000.00,029.3,027.8,000.0,037.9,031.1,27.7,0000.0,0010.42,0004.82,0004.13
2023-08-09 15:59:00,SystemResetWarning,0831.3,5.00,000.00,029.4,028.0,000.0,037.9,031.1,26.1,0000.0,0011.11,0004.86,0004.15
